AirNav   Air Wisconsin pilot careers
 
 1282 users online  

TA20 San Jacinto Methodist Hospital Heliport
Baytown, Texas, USA

GOING TO BAYTOWN?


FAA INFORMATION EFFECTIVE 07 DECEMBER 2017

Location

FAA Identifier: TA20
Lat/Long: 29-46-09.0600N / 094-58-43.4100W
29-46.151000N / 094-58.723500W
29.7691833 / -94.9787250
(estimated)
Elevation: 24 ft. / 7 m (estimated)
Variation: 06E (1985)
Time zone: UTC -6 (UTC -5 during Daylight Saving Time)
Zip code: 77521

Heliport Operations

Heliport use: Private use. Permission required prior to landing
Activation date: 06/1989
Control tower: no
ARTCC: HOUSTON CENTER
FSS: MONTGOMERY COUNTY FLIGHT SERVICE STATION
Attendance: UNATNDD
Wind indicator: lighted
Segmented circle: no

Heliport Communications

WX ASOS at HOU (17 nm SW): PHONE 713-847-1462

Nearby radio navigation aids

VOR radial/distance  VOR name  Freq  Var
HUBr061/17.0HOBBY VOR/DME117.1005E
MHFr311/18.0TRINITY VOR/DME113.6007E
IAHr116/22.2HUMBLE VORTAC116.6005E
VUHr343/30.5SCHOLES VOR/DME113.0006E
DASr210/30.6DAISETTA VORTAC116.9005E

 
NDB name  Hdg/Dist  Freq  Var  ID
SANJAC033/7.734705EJPA .--- .--. .-
NIXIN133/18.232605EBVP -... ...- .--.
GALVESTON328/28.620608EGLS --. .-.. ...

Heliport Services

Runway Information

Helipad H1

Dimensions: 60 x 60 ft. / 18 x 18 m
Surface: concrete
Latitude: 29-46.151000N
Longitude: 094-58.723500W
Elevation: 24.0 ft.
Traffic pattern: leftleft

Heliport Ownership and Management from official FAA records

Ownership: Privately-owned
Owner: SAN JACINTO METHODIST HOSP.
4401 GARTH ROAD
BAYTOWN, TX 77521
Phone 713-420-8765
Manager: ROD SEIDEL
4401 GARTH ROAD
BAYTOWN, TX 77521
Phone 713-420-8765

Instrument Procedures

There are no published instrument procedures at TA20.

Some nearby airports with instrument procedures:

KHPY - Baytown Airport (2 nm NE)
54T - RWJ Airpark (7 nm E)
T41 - La Porte Municipal Airport (7 nm SW)
KEFD - Ellington Airport (14 nm SW)
T00 - Chambers County Airport (16 nm E)
KHOU - William P Hobby Airport (17 nm SW)
 
Loc | Ops | Rwys | IFR | FBO | Links
Com | Nav | Svcs | Stats | Notes


 
Area around TA20 (San Jacinto Methodist Hospital Heliport)
 
Road maps at: MapQuest Bing Google
 
Aerial photo
No photo
 
Sectional chart

 
Airport distance calculator
Flying to San Jacinto Methodist Hospital Heliport? Find the distance to fly.

From to TA20

Sunrise and sunset
Times for 12-Dec-2017
 Local
(UTC-6)
 Zulu
(UTC)
Morning civil twilight06:4112:41
Sunrise07:0713:07
Sunset17:2123:21
Evening civil twilight17:4723:47

Current date and time
Zulu (UTC)  12-Dec-2017 22:35:39
Local (UTC-6)  12-Dec-2017 16:35:39
 
METAR
KEFD 
14nm SW 
122150Z 33010KT 10SM FEW250 17/M02 A3023
KHOU 
18nm SW 
122153Z 31013G17KT 10SM FEW250 17/M02 A3022 RMK AO2 SLP238 T01671017
KLVJ 
21nm SW 
122153Z AUTO 32007KT 10SM CLR 17/M02 A3023 RMK AO2 SLP236 T01721022
KIAH 
24nm NW 
122153Z 33013KT 10SM FEW250 17/M01 A3024 RMK AO2 SLP240 T01671011
TAF
KEFD 
14nm SW 
122000Z 1220/1402 33009KT 9999 SKC QNH3020INS BECMG 1223/1224 32006KT 9999 SKC QNH3010INS BECMG 1314/1315 21006KT 9999 FEW250 QNH2996INS TX19/1320Z TN04/1312Z
KHOU 
18nm SW 
122218Z 1222/1318 32015KT P6SM SKC FM130100 34006KT P6SM SKC FM131100 VRB04KT P6SM BKN250
NOTAMs
Click for the latest NOTAMs
NOTAMs are issued by the DoD/FAA and will open in a separate window not controlled by AirNav.

 

 
 

Would you like to see your business listed on this page?

 If your business provides an interesting product or service to pilots, flight crews, aircraft, or users of the San Jacinto Methodist Hospital Heliport, you should consider listing it here.  To start the listing process, click on the button below
 
Add a business
 

Other Pages about San Jacinto Methodist Hospital Heliport

Update a link
 
Copyright © AirNav, LLC. All rights reserved. Privacy Policy  Contact